W4ZHA Weather Reports


Display with metric or nautical units.
time (UTC)temp
F
wind
direction
speed
MPH
gust
MPH
rain 1hr
in
rain 24hr
in
rain mn
in
humidity
%
barometer
mb
20260506033323 72 219 0.0 0.0 0.00 0.00 0.00 63 1011.6
20260506032819 72 227 0.0 0.0 0.00 0.00 0.00 59 1012.3
20260506032316 73 228 0.0 0.0 0.00 0.00 0.00 59 1012.0
20260506031813 73 264 0.0 0.0 0.00 0.00 0.00 59 1012.0
20260506031311 72 250 0.0 0.0 0.00 0.00 0.00 59 1012.0
20260506030808 73 267 0.0 0.0 0.00 0.00 0.00 59 1012.0
20260506030306 73 228 0.0 0.0 0.00 0.00 0.00 58 1011.6
20260506025802 73 252 0.0 0.0 0.00 0.00 0.00 58 1012.0
20260506025259 73 245 0.0 0.0 0.00 0.00 0.00 58 1012.0
20260506024756 73 237 0.0 0.0 0.00 0.00 0.00 58 1012.3
20260506024253 73 210 0.0 0.0 0.00 0.00 0.00 58 1012.3
20260506023749 73 228 0.0 0.0 0.00 0.00 0.00 57 1012.0
20260506023246 73 163 0.0 0.0 0.00 0.00 0.00 57 1012.0
20260506022742 73 280 0.0 0.0 0.00 0.00 0.00 57 1011.6
20260506022241 73 262 0.0 0.0 0.00 0.00 0.00 57 1011.6
20260506021739 73 91 0.0 0.0 0.00 0.00 0.00 58 1011.6
20260506021235 73 281 0.0 0.0 0.00 0.00 0.00 57 1011.6
20260506020732 73 243 0.0 0.0 0.00 0.00 0.00 57 1011.6
20260506020230 73 282 0.0 0.0 0.00 0.00 0.00 57 1011.6
20260506015727 73 290 0.0 0.0 0.00 0.00 0.00 58 1011.6
20260506015225 73 251 0.0 0.0 0.00 0.00 0.00 57 1011.6
20260506014721 73 245 0.0 0.0 0.00 0.00 0.00 58 1011.6
20260506014217 73 235 0.0 0.0 0.00 0.00 0.00 58 1011.6
20260506013715 73 203 0.0 0.0 0.00 0.00 0.00 57 1011.6
20260506013212 73 234 0.0 0.0 0.00 0.00 0.00 58 1011.3
20260506012708 72 140 0.0 0.0 0.00 0.00 0.00 57 1011.3
20260506012205 73 199 0.0 0.0 0.00 0.00 0.00 57 1011.3
20260506011703 73 237 0.0 0.0 0.00 0.00 0.00 57 1011.0
20260506011158 73 223 0.0 0.0 0.00 0.00 0.00 57 1011.0
20260506010657 73 210 0.0 0.0 0.00 0.00 0.00 57 1011.0
20260506010154 73 228 0.0 0.0 0.00 0.00 0.00 57 1011.0
20260506005651 73 234 0.0 0.0 0.00 0.00 0.00 57 1011.0
20260506005148 72 236 0.0 0.0 0.00 0.00 0.00 57 1011.0
20260506004644 72 243 0.0 0.0 0.00 0.00 0.00 57 1011.0
20260506004141 72 248 0.0 0.0 0.00 0.00 0.00 56 1011.0
20260506003637 72 245 0.0 0.0 0.00 0.00 0.00 57 1011.0
20260506003134 72 206 0.0 0.0 0.00 0.00 0.00 56 1011.0
20260506002630 73 230 0.0 0.0 0.00 0.00 0.00 56 1011.3
20260506002126 72 227 0.0 0.0 0.00 0.00 0.00 56 1011.0
20260506001622 71 211 0.0 0.0 0.00 0.00 0.00 60 1011.3
20260506001119 71 236 0.0 0.0 0.00 0.00 0.00 58 1011.3
20260506000617 71 237 0.0 0.0 0.00 0.00 0.00 60 1011.3
20260506000114 71 231 0.0 0.0 0.00 0.00 0.00 59 1011.3
20260505235612 71 236 0.0 0.0 0.00 0.00 0.00 63 1011.3
20260505235109 72 263 0.0 0.0 0.00 0.00 0.00 60 1011.3
20260505234606 72 234 0.0 0.0 0.00 0.00 0.00 57 1011.3
20260505234102 72 218 0.0 0.0 0.00 0.00 0.00 56 1011.3
20260505233600 73 231 0.0 0.0 0.00 0.00 0.00 56 1011.6
20260505233057 73 251 0.0 0.0 0.00 0.00 0.00 57 1011.3
20260505232555 74 288 0.0 0.0 0.00 0.00 0.00 57 1011.6
20260505232052 74 265 0.0 0.0 0.00 0.00 0.00 57 1011.6
20260505231549 74 290 0.0 0.0 0.00 0.00 0.00 57 1011.6
20260505231048 73 290 0.0 0.0 0.00 0.00 0.00 57 1011.6
20260505230545 73 223 0.0 0.0 0.00 0.00 0.00 57 1011.6
20260505230041 73 226 0.0 0.0 0.00 0.00 0.00 57 1011.3
20260505225538 73 232 0.0 0.0 0.00 0.00 0.00 55 1011.3
20260505225034 73 250 0.0 0.0 0.00 0.00 0.00 54 1011.0
20260505224531 72 225 0.0 0.0 0.00 0.00 0.00 55 1011.0
20260505224028 73 166 0.0 0.0 0.00 0.00 0.00 56 1011.3
20260505223525 73 233 0.0 0.0 0.00 0.00 0.00 55 1011.3
20260505223021 73 234 0.0 0.0 0.00 0.00 0.00 54 1011.3
20260505222518 73 232 0.0 0.0 0.00 0.00 0.00 55 1011.3
20260505222014 73 231 0.0 0.0 0.00 0.00 0.00 55 1011.3
20260505221512 74 209 0.0 0.0 0.00 0.00 0.00 54 1011.3
20260505221008 74 258 0.0 0.0 0.00 0.00 0.00 54 1011.3
20260505220505 74 235 0.0 0.0 0.00 0.00 0.00 53 1011.6
20260505220003 74 209 0.0 0.0 0.00 0.00 0.00 52 1011.6
20260505215501 74 293 0.0 2.0 0.00 0.00 0.00 52 1011.6
20260505214958 74 244 0.0 0.0 0.00 0.00 0.00 53 1011.6
20260505214456 74 264 0.0 0.0 0.00 0.00 0.00 52 1011.6
20260505213953 74 209 0.0 0.0 0.00 0.00 0.00 52 1011.3
20260505213451 74 105 0.0 2.0 0.00 0.00 0.00 52 1011.6
20260505212947 74 140 0.0 0.0 0.00 0.00 0.00 53 1011.6
20260505212443 73 51 0.0 0.0 0.00 0.00 0.00 53 1011.6
20260505211940 74 164 0.0 5.0 0.00 0.00 0.00 49 1011.6
20260505211438 74 231 0.0 0.0 0.00 0.00 0.00 48 1011.6
20260505210934 75 192 0.0 0.0 0.00 0.00 0.00 47 1012.0
20260505210431 75 250 0.0 0.0 0.00 0.00 0.00 46 1012.0
20260505205927 76 251 0.0 2.0 0.00 0.00 0.00 46 1012.0
20260505205426 76 48 0.0 0.0 0.00 0.00 0.00 46 1012.0
20260505204923 76 231 0.0 2.0 0.00 0.00 0.00 46 1012.0
20260505204420 76 212 0.0 2.0 0.00 0.00 0.00 46 1012.0
20260505203918 77 233 0.0 5.0 0.00 0.00 0.00 46 1012.0
20260505203414 77 222 0.0 0.0 0.00 0.00 0.00 45 1012.0
20260505202910 78 228 0.0 0.0 0.00 0.00 0.00 45 1012.0
20260505202406 78 219 0.0 5.0 0.00 0.00 0.00 45 1012.3
20260505201903 77 198 0.0 5.0 0.00 0.00 0.00 45 1012.3
20260505201400 77 131 0.0 10.0 0.00 0.00 0.00 45 1012.3
20260505200858 78 208 0.0 10.0 0.00 0.00 0.00 45 1012.7
20260505200355 78 299 0.0 0.0 0.00 0.00 0.00 45 1012.3
20260505195851 79 212 0.0 15.0 0.00 0.00 0.00 45 1012.3
20260505195348 79 198 0.0 2.0 0.00 0.00 0.00 45 1012.7
20260505194845 79 171 4.0 13.0 0.00 0.00 0.00 45 1012.7
20260505194343 78 258 0.0 5.0 0.00 0.00 0.00 45 1012.7
20260505193838 78 129 0.0 8.0 0.00 0.00 0.00 45 1012.7
20260505193336 80 216 0.0 2.0 0.00 0.00 0.00 45 1013.0
20260505192833 79 212 0.0 5.0 0.00 0.00 0.00 45 1012.7
20260505192332 78 147 0.0 5.0 0.00 0.00 0.00 45 1013.0
20260505191829 78 215 0.0 5.0 0.00 0.00 0.00 45 1012.7
20260505191327 77 197 0.0 2.0 0.00 0.00 0.00 45 1013.4
20260505190823 78 251 1.0 10.0 0.00 0.00 0.00 45 1013.0
20260505190319 77 276 0.0 5.0 0.00 0.00 0.00 45 1013.0
20260505185815 77 198 0.0 2.0 0.00 0.00 0.00 45 1013.4
20260505185312 77 209 0.0 2.0 0.00 0.00 0.00 45 1013.0
20260505184808 78 326 0.0 2.0 0.00 0.00 0.00 45 1013.0
20260505184305 78 291 0.0 0.0 0.00 0.00 0.00 45 1013.0
20260505183802 77 274 0.0 5.0 0.00 0.00 0.00 45 1013.4
20260505183259 77 230 0.0 10.0 0.00 0.00 0.00 45 1013.4
20260505182756 78 143 5.0 5.0 0.00 0.00 0.00 45 1013.4
20260505182252 78 225 0.0 5.0 0.00 0.00 0.00 45 1013.8
20260505181749 78 271 0.0 0.0 0.00 0.00 0.00 45 1013.8
20260505181246 77 227 0.0 8.0 0.00 0.00 0.00 46 1013.8
20260505180743 78 151 0.0 2.0 0.00 0.00 0.00 45 1013.8
20260505180239 78 249 0.0 2.0 0.00 0.00 0.00 45 1013.8
20260505175736 78 125 0.0 0.0 0.00 0.00 0.00 45 1013.8
20260505175232 77 156 2.0 10.0 0.00 0.00 0.00 46 1014.1
20260505174729 78 176 0.0 2.0 0.00 0.00 0.00 45 1013.8
20260505174226 77 177 0.0 2.0 0.00 0.00 0.00 46 1014.1
20260505173722 77 192 1.0 5.0 0.00 0.00 0.00 45 1014.1
20260505173219 78 217 0.0 0.0 0.00 0.00 0.00 45 1014.1
20260505172716 78 126 0.0 0.0 0.00 0.00 0.00 45 1014.4
20260505172213 77 210 0.0 0.0 0.00 0.00 0.00 46 1014.4
20260505171713 78 98 0.0 0.0 0.00 0.00 0.00 45 1014.4
20260505171210 76 150 0.0 0.0 0.00 0.00 0.00 46 1015.1
20260505170707 76 253 0.0 5.0 0.00 0.00 0.00 46 1014.8
20260505170204 77 159 0.0 0.0 0.00 0.00 0.00 46 1014.8
20260505165704 77 292 0.0 5.0 0.00 0.00 0.00 46 1015.1
20260505165200 75 280 1.0 2.0 0.00 0.00 0.00 47 1014.8
20260505164655 75 131 0.0 8.0 0.00 0.00 0.00 47 1015.1
20260505164153 75 114 0.0 0.0 0.00 0.00 0.00 46 1015.1
20260505163651 75 228 0.0 0.0 0.00 0.00 0.00 46 1015.1
20260505163149 76 143 0.0 0.0 0.00 0.00 0.00 55 1015.1
20260505162646 73 239 0.0 0.0 0.00 0.00 0.00 53 1015.5
20260505162144 75 201 0.0 0.0 0.00 0.00 0.00 53 1015.1
20260505161640 73 270 0.0 2.0 0.00 0.00 0.00 54 1014.8
20260505161138 73 237 0.0 0.0 0.00 0.00 0.00 55 1015.1
20260505160636 72 249 0.0 5.0 0.00 0.00 0.00 55 1015.1
20260505160133 71 205 0.0 0.0 0.00 0.00 0.00 56 1015.1
20260505153112 71 233 0.0 0.0 0.00 0.00 0.00 58 1015.5
20260505152609 71 163 0.0 2.0 0.00 0.00 0.00 57 1015.5
20260505152104 70 127 0.0 0.0 0.00 0.00 0.00 57 1015.5
20260505151600 70 198 0.0 2.0 0.00 0.00 0.00 58 1015.5
20260505151058 71 275 0.0 0.0 0.00 0.00 0.00 58 1015.5
20260505150554 70 163 0.0 0.0 0.00 0.00 0.00 59 1015.5
20260505140519 64 156 0.0 0.0 0.00 0.00 0.00 62 1015.5
20260505124932 60 234 0.0 0.0 0.00 0.00 0.00 70 1015.5
20260505124429 60 234 0.0 0.0 0.00 0.00 0.00 71 1015.5
20260505123925 60 234 0.0 0.0 0.00 0.00 0.00 71 1015.5
20260505123422 59 235 0.0 0.0 0.00 0.00 0.00 71 1015.1
20260505122918 59 240 0.0 0.0 0.00 0.00 0.00 72 1015.1
20260505122415 58 248 0.0 0.0 0.00 0.00 0.00 72 1015.1
20260505121912 57 228 0.0 0.0 0.00 0.00 0.00 74 1014.8
20260505121409 57 228 0.0 0.0 0.00 0.00 0.00 75 1014.8
20260505120905 57 248 0.0 0.0 0.00 0.00 0.00 75 1014.8
20260505120402 56 239 0.0 0.0 0.00 0.00 0.00 76 1014.8
20260505115900 55 228 0.0 0.0 0.00 0.00 0.00 75 1014.8
20260505115357 54 228 0.0 0.0 0.00 0.00 0.00 76 1014.8
20260505114855 53 228 0.0 0.0 0.00 0.00 0.00 77 1014.8
20260505114351 53 240 0.0 0.0 0.00 0.00 0.00 78 1014.4
20260505113848 52 219 0.0 0.0 0.00 0.00 0.00 79 1014.4
20260505113344 52 236 0.0 0.0 0.00 0.00 0.00 80 1014.4
20260505112840 51 234 0.0 0.0 0.00 0.00 0.00 80 1014.4
20260505112338 51 227 0.0 0.0 0.00 0.00 0.00 80 1014.4
20260505111833 51 226 0.0 0.0 0.00 0.00 0.00 80 1014.4
20260505111329 50 230 0.0 0.0 0.00 0.00 0.00 79 1014.4
20260505110825 50 226 0.0 0.0 0.00 0.00 0.00 79 1014.4
20260505110323 50 227 0.0 0.0 0.00 0.00 0.00 79 1014.4
20260505101757 50 266 0.0 0.0 0.00 0.00 0.00 79 1013.8
20260505101253 50 220 0.0 0.0 0.00 0.00 0.00 79 1013.8
20260505100749 50 218 0.0 0.0 0.00 0.00 0.00 78 1013.8
20260505100246 51 250 0.0 0.0 0.00 0.00 0.00 78
20260505095741 51 230 0.0 0.0 0.00 0.00 0.00 79
20260505095240 51 190 0.0 0.0 0.00 0.00 0.00 79 1013.4
20260505094735 51 255 0.0 0.0 0.00 0.00 0.00 79 1013.4
20260505094232 51 213 0.0 0.0 0.00 0.00 0.00 79 1013.8
20260505093728 51 203 0.0 0.0 0.00 0.00 0.00 79 1013.8
20260505093225 51 67 0.0 0.0 0.00 0.00 0.00 79 1013.4
20260505092722 51 207 0.0 0.0 0.00 0.00 0.00 79 1013.8
20260505092221 51 216 0.0 0.0 0.00 0.00 0.00 79 1013.4
20260505091717 51 221 0.0 0.0 0.00 0.00 0.00 78 1013.8
20260505091216 51 220 0.0 0.0 0.00 0.00 0.00 78 1013.8
20260505090713 51 214 0.0 0.0 0.00 0.00 0.00 78 1013.4
20260505090211 51 236 0.0 0.0 0.00 0.00 0.00 78 1013.8
20260505085708 51 213 0.0 0.0 0.00 0.00 0.00 78 1013.4
20260505085206 51 222 0.0 0.0 0.00 0.00 0.00 78 1013.0
20260505084703 51 236 0.0 0.0 0.00 0.00 0.00 78 1013.0
20260505084202 51 243 0.0 0.0 0.00 0.00 0.00 78 1013.4
20260505083659 51 230 0.0 0.0 0.00 0.00 0.00 78 1013.4
20260505083155 52 228 0.0 0.0 0.00 0.00 0.00 77 1013.8
20260505082651 52 220 0.0 0.0 0.00 0.00 0.00 77 1013.8
20260505082148 52 149 0.0 0.0 0.00 0.00 0.00 76 1013.8
20260505081644 52 183 0.0 0.0 0.00 0.00 0.00 77 1013.8
20260505081142 52 239 0.0 0.0 0.00 0.00 0.00 76 1013.8
20260505080639 52 234 0.0 0.0 0.00 0.00 0.00 77 1013.8
20260505080135 52 170 0.0 0.0 0.00 0.00 0.00 76 1013.8
20260505075631 52 256 0.0 0.0 0.00 0.00 0.00 77 1013.8
20260505075128 52 244 0.0 0.0 0.00 0.00 0.00 76 1013.8
20260505074625 53 225 0.0 0.0 0.00 0.00 0.00 76 1013.8
20260505074122 53 198 0.0 0.0 0.00 0.00 0.00 76 1013.8
20260505073620 53 237 0.0 0.0 0.00 0.00 0.00 76 1013.8
20260505073118 53 220 0.0 0.0 0.00 0.00 0.00 76 1013.8
20260505072613 54 222 0.0 0.0 0.00 0.00 0.00 75 1013.8
20260505072110 53 258 0.0 0.0 0.00 0.00 0.00 76 1013.8
20260505071605 54 200 0.0 0.0 0.00 0.00 0.00 75 1013.8
20260505071103 54 224 0.0 0.0 0.00 0.00 0.00 75 1013.8
20260505070600 54 220 0.0 0.0 0.00 0.00 0.00 75 1013.8
20260505070056 54 219 0.0 0.0 0.00 0.00 0.00 75 1013.8
20260505065552 54 244 0.0 0.0 0.00 0.00 0.00 74 1013.8
20260505065049 54 222 0.0 0.0 0.00 0.00 0.00 74 1013.8
20260505064546 55 215 0.0 0.0 0.00 0.00 0.00 74 1013.8
20260505064045 55 246 0.0 0.0 0.00 0.00 0.00 74 1013.8
20260505063542 55 225 0.0 0.0 0.00 0.00 0.00 74 1013.8
20260505063037 55 265 0.0 0.0 0.00 0.00 0.00 74 1013.8
20260505062534 55 249 0.0 0.0 0.00 0.00 0.00 74 1013.8
20260505062031 55 228 0.0 0.0 0.00 0.00 0.00 74 1014.1
20260505061529 56 237 0.0 0.0 0.00 0.00 0.00 74 1013.8
20260505061027 56 232 0.0 0.0 0.00 0.00 0.00 74 1014.1
20260505060524 56 228 0.0 0.0 0.00 0.00 0.00 74 1013.8
20260505060021 56 239 0.0 0.0 0.00 0.00 0.00 74 1013.8
20260505055516 57 260 0.0 0.0 0.00 0.00 0.00 74 1014.1
20260505055013 57 228 0.0 0.0 0.00 0.00 0.00 74 1013.8
20260505054510 57 251 0.0 0.0 0.00 0.00 0.00 74 1013.8
20260505054008 56 217 0.0 0.0 0.00 0.00 0.00 74 1013.8
20260505053505 57 215 0.0 0.0 0.00 0.00 0.00 74 1013.8
20260505053001 57 244 0.0 0.0 0.00 0.00 0.00 73 1013.8
20260505052459 57 257 0.0 0.0 0.00 0.00 0.00 73 1014.1
20260505051956 57 247 0.0 0.0 0.00 0.00 0.00 72 1013.8
20260505051452 57 282 0.0 0.0 0.00 0.00 0.00 73 1013.8
20260505050951 57 239 0.0 0.0 0.00 0.00 0.00 73 1013.8
20260505050449 57 226 0.0 0.0 0.00 0.00 0.00 73 1013.8
20260505041416 57 240 0.0 0.0 0.00 0.00 0.00 70 1013.8
20260505040913 58 233 0.0 0.0 0.00 0.00 0.00 70 1013.8
20260505040411 58 238 0.0 0.0 0.00 0.00 0.00 70 1013.8
20260505035907 58 236 0.0 0.0 0.00 0.00 0.00 70 1013.8
20260505035403 58 225 0.0 0.0 0.00 0.00 0.00 71 1013.8
20260505034901 58 218 0.0 0.0 0.00 0.00 0.00 70 1013.8
20260505034357 58 232 0.0 0.0 0.00 0.00 0.00 69 1013.8
20260505033854 59 234 0.0 0.0 0.00 0.00 0.00 69 1013.8
20260505033351 59 242 0.0 0.0 0.00 0.00 0.00 69 1013.8